TimeCST,TemperatureF,Dew PointF,Humidity,Sea Level PressureIn,VisibilityMPH,Wind Direction,Wind SpeedMPH,Gust SpeedMPH,PrecipitationIn,Events,Conditions,WindDirDegrees,DateUTC
12:53 AM,28.9,21.9,75,30.04,5.0,North,24.2,28.8,0.00,Snow,Light Snow,350,2013-12-14 06:53:00
1:25 AM,28.4,21.2,74,30.03,6.0,North,18.4,-,0.00,Snow,Light Snow,350,2013-12-14 07:25:00
1:53 AM,26.1,19.9,78,30.07,5.0,NNW,19.6,27.6,0.00,Snow,Light Snow,340,2013-12-14 07:53:00
2:53 AM,25.0,19.0,78,30.10,5.0,NNW,23.0,28.8,0.00,Snow,Light Snow,340,2013-12-14 08:53:00
3:53 AM,25.0,18.0,75,30.13,5.0,NNW,23.0,31.1,0.00,Snow,Light Snow,330,2013-12-14 09:53:00
4:53 AM,24.1,17.1,75,30.15,6.0,North,20.7,28.8,0.00,Snow,Light Snow,350,2013-12-14 10:53:00
5:53 AM,24.1,18.0,77,30.18,6.0,NNW,18.4,-,0.00,,Haze,330,2013-12-14 11:53:00
6:53 AM,23.0,16.0,74,30.22,6.0,NNW,18.4,27.6,0.00,Snow,Light Snow,340,2013-12-14 12:53:00
7:53 AM,21.9,15.1,75,30.26,5.0,NNW,17.3,-,0.00,,Haze,340,2013-12-14 13:53:00
8:36 AM,21.2,14.0,74,30.23,5.0,NNW,18.4,-,N/A,,Haze,340,2013-12-14 14:36:00
8:43 AM,21.2,14.0,74,30.24,5.0,NNW,15.0,-,0.00,Snow,Light Snow,340,2013-12-14 14:43:00
8:53 AM,23.0,15.1,72,30.28,5.0,NNW,15.0,-,0.00,,Haze,330,2013-12-14 14:53:00
9:00 AM,23.0,15.8,74,30.24,5.0,NNW,16.1,-,N/A,,Haze,340,2013-12-14 15:00:00
9:53 AM,24.1,15.1,69,30.30,5.0,NNW,21.9,-,N/A,,Haze,340,2013-12-14 15:53:00
10:53 AM,27.0,15.1,61,30.30,6.0,NNW,16.1,-,N/A,,Haze,340,2013-12-14 16:53:00
11:53 AM,30.0,16.0,56,30.27,7.0,NNW,13.8,-,N/A,,Clear,330,2013-12-14 17:53:00
12:53 PM,33.1,16.0,50,30.25,8.0,NW,16.1,-,N/A,,Clear,310,2013-12-14 18:53:00
1:53 PM,35.1,18.0,50,30.24,9.0,NW,15.0,20.7,N/A,,Clear,320,2013-12-14 19:53:00
2:53 PM,35.1,18.0,50,30.24,9.0,NW,12.7,-,N/A,,Clear,320,2013-12-14 20:53:00
3:53 PM,35.1,19.0,52,30.26,9.0,NNW,11.5,-,N/A,,Clear,340,2013-12-14 21:53:00
4:53 PM,32.0,19.0,59,30.27,10.0,NNW,5.8,-,N/A,,Clear,330,2013-12-14 22:53:00
5:53 PM,28.9,19.0,67,30.27,10.0,North,4.6,-,N/A,,Clear,360,2013-12-14 23:53:00
6:53 PM,24.1,16.0,71,30.27,10.0,Calm,Calm,-,N/A,,Clear,0,2013-12-15 00:53:00
7:53 PM,24.1,17.1,75,30.28,10.0,Calm,Calm,-,N/A,,Clear,0,2013-12-15 01:53:00
8:53 PM,21.9,16.0,78,30.28,8.0,SSW,6.9,-,N/A,,Clear,210,2013-12-15 02:53:00
9:53 PM,19.0,12.9,77,30.27,8.0,SSW,5.8,-,N/A,,Clear,210,2013-12-15 03:53:00
10:53 PM,16.0,10.9,81,30.25,7.0,South,5.8,-,N/A,,Clear,190,2013-12-15 04:53:00
11:53 PM,19.0,12.9,77,30.25,8.0,South,3.5,-,N/A,,Clear,170,2013-12-15 05:53:00